Location: Braden Valley Church
(38.0012°N, 88.6106°W)
Time: 02:52:16
(UTC+00:00)

Meteor 1-14 Rocket - Pass Details

Date: 08 December 2021
Orbit: 834 x 918 km, 81.3° (Epoch: 21 January)

Event Time Altitude Azimuth Distance (km) Brightness Sun altitude
Rises 23:19:54 0° 353° (N) 3,513 7.3 -8.9°
Reaches altitude 10° 23:22:21 10° 356° (N) 2,580 6.6 -9.3°
Maximum altitude 23:28:15 70° 80° (E) 964 4.3 -10.4°
Drops below altitude 10° 23:34:10 10° 164° (SSE) 2,600 6.8 -11.5°
Sets 23:36:39 0° 167° (SSE) 3,541 7.5 -11.9°
